Location: Unspecified
(0.0000°N, 0.0000°E)
Time: 03:49:06
(UTC+02:00)

GPS 2-15 Rocket1 - Visible Passes

Search period start: 19 April 2014 00:00
Search period end: 29 April 2014 00:00
Orbit: 628 x 682 km, 19.8° (Epoch: 17 April)

Date Brightness Start Highest point End Pass type
(mag) Time Alt. Az. Time Alt. Az. Time Alt. Az.
20 Apr 5.3 20:54:45 10° S 20:55:43 11° SSE 20:56:41 10° SSE visible
21 Apr 5.0 21:20:55 10° SSW 21:23:25 17° S 21:23:25 17° S visible
22 Apr 5.0 21:48:01 10° SW 21:49:53 20° SSW 21:49:53 20° SSW visible
23 Apr 4.8 20:32:15 10° SSW 20:35:38 19° SSE 20:38:38 11° ESE visible
23 Apr 5.6 22:15:31 10° WSW 22:16:24 15° SW 22:16:24 15° SW visible
24 Apr 5.9 07:03:39 10° N 07:04:42 11° NNE 07:05:45 10° NNE visible
24 Apr 4.0 20:59:26 10° SW 21:03:44 33° SSE 21:05:13 27° SE visible
25 Apr 5.6 07:29:50 10° NNW 07:32:57 17° NNE 07:36:06 10° ENE visible
25 Apr 3.0 21:27:00 10° WSW 21:31:44 65° SSE 21:31:52 64° SSE visible
26 Apr 5.8 06:14:48 10° N 06:16:19 11° NNE 06:17:51 10° NNE visible
26 Apr 4.0 21:54:58 10° WSW 21:58:34 47° WNW 21:58:34 47° WNW visible
27 Apr 5.5 06:41:15 10° NNW 06:44:33 18° NNE 06:47:52 10° ENE visible
27 Apr 3.1 20:38:29 10° WSW 20:43:18 75° SSE 20:47:30 13° ENE visible
27 Apr 5.5 22:23:24 10° W 22:25:17 21° WNW 22:25:17 21° WNW visible
28 Apr 6.0 05:28:50 12° NNE 05:28:50 12° NNE 05:29:51 10° NE visible
28 Apr 4.7 07:08:23 10° NW 07:12:37 32° NNE 07:16:55 10° E visible
28 Apr 3.7 21:06:31 10° W 21:11:14 55° NNW 21:14:14 21° NE visible
